Flag for Austria Weather for the Past 2 Weeks in St. Veit an der Glan, Carinthia, Austria

Now
52 °F

Partly sunny.


Feels Like: 49 °F
Forecast: 25 / 37 °F
Wind: 7 mph from West

Location: Klagenfurt-Flughafen

Current Time: Feb 9, 2016 at 3:22:40 PM

Latest Report: Feb 9, 2016 at 2:20 PM


Visibility: N/A

Pressure: 29.71 "Hg

Humidity: 62%

Dew point: 39 °F

Location of St. Veit an der GlanLocation

Historic Weather in St. Veit an der Glan — Graph

°F

St. Veit an der Glan Temperature Yesterday

Maximum temperature yesterday: 46 °F (at 1:20 PM)
Minimum temperature yesterday: 36 °F (at 5:20 AM)
Average temperature yesterday: 40 °F

High & Low Weather Summary for the Past Weeks

 TemperatureHumidityPressure
High55 °F (Feb 1, 2:50 PM)100% (Jan 26, 6:50 AM)30.45 "Hg (Jan 26, 6:50 AM)
Low23 °F (Jan 30, 6:50 AM)32% (Feb 4, 3:50 PM)29.74 "Hg (Feb 9, 1:50 PM)
Average36 °F86%30.17 "Hg
* Reported Jan 25 1:20 PM — Feb 9 1:50 PM, St. Veit an der Glan, Weather by CustomWeather, © 2016

Note: Actual official high and low records may vary slightly from our data, if they occured in-between our weather recording intervals... More about our weather records

Advertising

St. Veit an der Glan Weather History for the Previous 24 Hours

 ConditionsComfort  
Time TempWeatherWind HumidityBarometerVisibility
1:50 PM
Tue, Feb 9
52 °FPartly sunny.2 mph62%29.74 "HgN/A
1:20 PM50 °FPartly sunny.3 mph71%29.77 "HgN/A
12:50 PM50 °FPartly sunny.1 mph67%29.80 "HgN/A
12:20 PM48 °FPartly sunny.1 mph71%29.83 "HgN/A
11:20 AM45 °FPartly sunny.5 mph76%29.86 "HgN/A
10:50 AM45 °FBroken clouds.1 mph76%29.86 "HgN/A
10:20 AM41 °FBroken clouds.5 mph87%29.86 "HgN/A
9:50 AM39 °FPartly sunny.6 mph87%29.89 "HgN/A
8:50 AM37 °FPartly sunny.2 mph87%29.89 "HgN/A
8:20 AM36 °FPartly sunny.1 mph93%29.92 "HgN/A
7:50 AM36 °FPartly sunny.2 mph93%29.92 "HgN/A
7:20 AM34 °FScattered clouds.5 mph93%29.89 "HgN/A
6:50 AM34 °FPassing clouds.1 mph93%29.89 "HgN/A
6:20 AM36 °FPassing clouds.2 mph93%29.89 "HgN/A
5:50 AM34 °FPassing clouds.2 mph93%29.89 "HgN/A
5:20 AM34 °FPassing clouds.1 mph93%29.89 "HgN/A
4:50 AM36 °FPassing clouds.2 mph93%29.89 "HgN/A
4:20 AM37 °FOvercast.2 mph93%29.89 "HgN/A
3:50 AM37 °FPassing clouds.3 mph93%29.86 "HgN/A
3:20 AM37 °FPassing clouds.5 mph87%29.86 "HgN/A
2:50 AM36 °FPassing clouds.6 mph93%29.86 "HgN/A
2:20 AM36 °FPassing clouds.2 mph100%29.86 "HgN/A
1:50 AM36 °FPassing clouds.3 mph93%29.86 "HgN/A
1:20 AM36 °FPassing clouds.1 mph93%29.86 "HgN/A
12:50 AM36 °FPassing clouds.3 mph100%29.89 "HgN/A
12:20 AM36 °FPassing clouds.2 mph93%29.86 "HgN/A
11:50 PM
Mon, Feb 8
37 °FPassing clouds.6 mph100%29.86 "HgN/A
11:20 PM36 °FPassing clouds.2 mph100%29.86 "HgN/A
10:50 PM37 °FPassing clouds.2 mph93%29.86 "HgN/A
10:20 PM37 °FFog.2 mph93%29.89 "Hg6 mi
9:50 PM39 °FPartly cloudy.1 mph93%29.86 "HgN/A
9:20 PM39 °FPartly cloudy.3 mph93%29.86 "HgN/A
8:50 PM39 °FPartly cloudy.5 mph93%29.86 "HgN/A
8:20 PM37 °FSleet. Overcast.2 mph100%29.89 "Hg2 mi
7:50 PM36 °FFog.2 mph100%29.86 "Hg4 mi
7:20 PM37 °FFog.2 mph100%29.86 "Hg5 mi
6:50 PM39 °FPassing clouds.1 mph93%29.86 "HgN/A
6:20 PM41 °FPassing clouds.3 mph93%29.86 "HgN/A
5:50 PM43 °FPassing clouds.2 mph93%29.86 "HgN/A
5:20 PM45 °FPassing clouds.2 mph87%29.86 "HgN/A
4:50 PM45 °FPartly sunny.1 mph87%29.86 "HgN/A
4:20 PM46 °FPartly sunny.3 mph87%29.86 "HgN/A
3:50 PM46 °FBroken clouds.2 mph87%29.83 "HgN/A
Weather by CustomWeather, © 2016

See weather overviewHow to use our weather pages